Location: El Gandul
(32.4984°N, 116.7135°W)
Time: 15:59:13
(UTC+00:00)

Cosmos 1818 - Pass Details

Date: 03 August 2024
Orbit: 770 x 801 km, 65.0° (Epoch: 09 September)

Event Time Altitude Azimuth Distance (km) Brightness Sun altitude
Exits shadow 12:02:08 12° 208° (SSW) 2,219 5.4 -12.4°
Maximum altitude 12:07:13 87° 297° (WNW) 798 3.6 -11.5°
Drops below altitude 10° 12:12:41 10° 27° (NNE) 2,371 7.0 -10.5°
Sets 12:15:08 0° 28° (NNE) 3,307 7.8 -10.0°
